Orbital Elements at Epoch 2459000.5 (2020-May-31.0) TDB
Reference: JPL 16 (heliocentric ecliptic J2000)
Element | Value | Uncertainty (1-sigma) | Units |
e | .1010152504022407 | 5.0697e-08 | |
a | 2.777043817306813 | 1.8352e-08 | au |
q | 2.496520040723571 | 1.4363e-07 | au |
i | 3.947915838960266 | 5.0277e-06 | deg |
node | 295.6601937615409 | 7.2488e-05 | deg |
peri | 235.5823504413705 | 7.5779e-05 | deg |
M | .5819970616508421 | 2.1218e-05 | deg |
tp | 2458997.767307174822 (2020-May-28.26730717) | 9.9623e-05 | TDB |
period | 1690.333992879048 4.63 | 1.6756e-05 4.588e-08 | d yr |
n | .2129756613288199 | 2.1112e-09 | deg/d |
Q | 3.057567593890055 | 2.0206e-08 | au |
|
| | Orbit Determination Parameters
Additional Information
|